Year,Month,Day,Hour,Minute,Value (Times are PST for temperature in C)
2016,03,28,00,00,5.60
2016,03,28,00,01,5.50
2016,03,28,00,02,5.50
2016,03,28,00,03,5.40
2016,03,28,00,04,5.40
2016,03,28,00,05,5.40
2016,03,28,00,06,5.40
2016,03,28,00,07,5.40
2016,03,28,00,08,5.30
2016,03,28,00,09,5.30
2016,03,28,00,10,5.30
2016,03,28,00,11,5.30
2016,03,28,00,12,5.30
2016,03,28,00,13,5.40
2016,03,28,00,14,5.40
2016,03,28,00,15,5.40
2016,03,28,00,16,5.40
2016,03,28,00,17,5.50
2016,03,28,00,18,5.60
2016,03,28,00,19,5.60
2016,03,28,00,20,5.60
2016,03,28,00,21,5.60
2016,03,28,00,22,5.50
2016,03,28,00,23,5.50
2016,03,28,00,24,5.40
2016,03,28,00,25,5.40
2016,03,28,00,26,5.30
2016,03,28,00,27,5.30
2016,03,28,00,28,5.30
2016,03,28,00,29,5.30
2016,03,28,00,30,5.30
2016,03,28,00,31,5.30
2016,03,28,00,32,5.40
2016,03,28,00,33,5.60
2016,03,28,00,34,5.70
2016,03,28,00,35,5.70
2016,03,28,00,36,5.80
2016,03,28,00,37,5.80
2016,03,28,00,38,5.80
2016,03,28,00,39,5.80
2016,03,28,00,40,5.80
2016,03,28,00,41,5.70
2016,03,28,00,42,5.70
2016,03,28,00,43,5.70
2016,03,28,00,44,5.70
2016,03,28,00,45,5.70
2016,03,28,00,46,5.60
2016,03,28,00,47,5.60
2016,03,28,00,48,5.50
2016,03,28,00,49,5.50
2016,03,28,00,50,5.40
2016,03,28,00,51,5.40
2016,03,28,00,52,5.40
2016,03,28,00,53,5.40
2016,03,28,00,54,5.40
2016,03,28,00,55,5.30
2016,03,28,00,56,5.30
2016,03,28,00,57,5.30
2016,03,28,00,58,5.30
2016,03,28,00,59,5.30
2016,03,28,01,00,5.30
2016,03,28,01,01,5.20
2016,03,28,01,02,5.20
2016,03,28,01,03,5.20
2016,03,28,01,04,5.10
2016,03,28,01,05,5.20
2016,03,28,01,06,5.20
2016,03,28,01,07,5.20
2016,03,28,01,08,5.20
2016,03,28,01,09,5.10
2016,03,28,01,10,5.10
2016,03,28,01,11,5.10
2016,03,28,01,12,5.10
2016,03,28,01,13,5.10
2016,03,28,01,14,5.00
2016,03,28,01,15,5.00
2016,03,28,01,16,4.90
2016,03,28,01,17,4.90
2016,03,28,01,18,4.80
2016,03,28,01,19,4.80
2016,03,28,01,20,4.90
2016,03,28,01,21,4.90
2016,03,28,01,22,4.90
2016,03,28,01,23,4.90
2016,03,28,01,24,4.90
2016,03,28,01,25,4.90
2016,03,28,01,26,4.90
2016,03,28,01,27,4.90
2016,03,28,01,28,4.90
2016,03,28,01,29,4.80
2016,03,28,01,30,4.90
2016,03,28,01,31,4.90
2016,03,28,01,32,5.00
2016,03,28,01,33,5.00
2016,03,28,01,34,5.00
2016,03,28,01,35,5.00
2016,03,28,01,36,5.00
2016,03,28,01,37,5.00
2016,03,28,01,38,5.00
2016,03,28,01,39,5.10
2016,03,28,01,40,5.10
2016,03,28,01,41,5.10
2016,03,28,01,42,5.10
2016,03,28,01,43,5.10
2016,03,28,01,44,5.10
2016,03,28,01,45,5.10
2016,03,28,01,46,5.20
2016,03,28,01,47,5.20
2016,03,28,01,48,5.30
2016,03,28,01,49,5.20
2016,03,28,01,50,5.20
2016,03,28,01,51,5.20
2016,03,28,01,52,5.20
2016,03,28,01,53,5.20
2016,03,28,01,54,5.30
2016,03,28,01,55,5.30
2016,03,28,01,56,5.30
2016,03,28,01,57,5.40
2016,03,28,01,58,5.40
2016,03,28,01,59,5.40
2016,03,28,02,00,5.40
2016,03,28,02,01,5.40
2016,03,28,02,02,5.40
2016,03,28,02,03,5.40
2016,03,28,02,04,5.40
2016,03,28,02,05,5.40
2016,03,28,02,06,5.40
2016,03,28,02,07,5.40
2016,03,28,02,08,5.40
2016,03,28,02,09,5.40
2016,03,28,02,10,5.50
2016,03,28,02,11,5.50
2016,03,28,02,12,5.60
2016,03,28,02,13,5.60
2016,03,28,02,14,5.70
2016,03,28,02,15,5.70
2016,03,28,02,16,5.70
2016,03,28,02,17,5.70
2016,03,28,02,18,5.80
2016,03,28,02,19,5.80
2016,03,28,02,20,5.80
2016,03,28,02,21,5.90
2016,03,28,02,22,5.90
2016,03,28,02,23,5.90
2016,03,28,02,24,6.00
2016,03,28,02,25,6.10
2016,03,28,02,26,6.10
2016,03,28,02,27,6.10
2016,03,28,02,28,6.00
2016,03,28,02,29,6.00
2016,03,28,02,30,6.00
2016,03,28,02,31,5.90
2016,03,28,02,32,5.90
2016,03,28,02,33,5.90
2016,03,28,02,34,5.90
2016,03,28,02,35,5.90
2016,03,28,02,36,5.90
2016,03,28,02,37,5.90
2016,03,28,02,38,5.90
2016,03,28,02,39,5.90
2016,03,28,02,40,5.80
2016,03,28,02,41,5.80
2016,03,28,02,42,5.80
2016,03,28,02,43,5.80
2016,03,28,02,44,5.80
2016,03,28,02,45,5.70
2016,03,28,02,46,5.70
2016,03,28,02,47,5.70
2016,03,28,02,48,5.70
2016,03,28,02,49,5.70
2016,03,28,02,50,5.70
2016,03,28,02,51,5.70
2016,03,28,02,52,5.70
2016,03,28,02,53,5.70
2016,03,28,02,54,5.70
2016,03,28,02,55,5.70
2016,03,28,02,56,5.70
2016,03,28,02,57,5.70
2016,03,28,02,58,5.80
2016,03,28,02,59,5.80
2016,03,28,03,00,5.80
2016,03,28,03,01,5.80
2016,03,28,03,02,5.80
2016,03,28,03,03,5.80
2016,03,28,03,04,5.80
2016,03,28,03,05,5.80
2016,03,28,03,06,5.70
2016,03,28,03,07,5.70
2016,03,28,03,08,5.70
2016,03,28,03,09,5.70
2016,03,28,03,10,5.70
2016,03,28,03,11,5.70
2016,03,28,03,12,5.70
2016,03,28,03,13,5.70
2016,03,28,03,14,5.70
2016,03,28,03,15,5.80
2016,03,28,03,16,5.80
2016,03,28,03,17,5.80
2016,03,28,03,18,5.80
2016,03,28,03,19,5.90
2016,03,28,03,20,5.90
2016,03,28,03,21,6.00
2016,03,28,03,22,6.00
2016,03,28,03,23,6.10
2016,03,28,03,24,6.20
2016,03,28,03,25,6.20
2016,03,28,03,26,6.20
2016,03,28,03,27,6.30
2016,03,28,03,28,6.30
2016,03,28,03,29,6.30
2016,03,28,03,30,6.30
2016,03,28,03,31,6.30
2016,03,28,03,32,6.30
2016,03,28,03,33,6.30
2016,03,28,03,34,6.30
2016,03,28,03,35,6.30
2016,03,28,03,36,6.30
2016,03,28,03,37,6.30
2016,03,28,03,38,6.30
2016,03,28,03,39,6.30
2016,03,28,03,40,6.30
2016,03,28,03,41,6.30
2016,03,28,03,42,6.30
2016,03,28,03,43,6.20
2016,03,28,03,44,6.20
2016,03,28,03,45,6.20
2016,03,28,03,46,6.20
2016,03,28,03,47,6.10
2016,03,28,03,48,6.10
2016,03,28,03,49,6.10
2016,03,28,03,50,6.10
2016,03,28,03,51,6.10
2016,03,28,03,52,6.10
2016,03,28,03,53,6.10
2016,03,28,03,54,6.20
2016,03,28,03,55,6.20
2016,03,28,03,56,6.20
2016,03,28,03,57,6.20
2016,03,28,03,58,6.20
2016,03,28,03,59,6.30
2016,03,28,04,00,6.30
2016,03,28,04,01,6.40
2016,03,28,04,02,6.50
2016,03,28,04,03,6.50
2016,03,28,04,04,6.60
2016,03,28,04,05,6.70
2016,03,28,04,06,6.70
2016,03,28,04,07,6.70
2016,03,28,04,08,6.70
2016,03,28,04,09,6.70
2016,03,28,04,10,6.70
2016,03,28,04,11,6.70
2016,03,28,04,12,6.80
2016,03,28,04,13,6.80
2016,03,28,04,14,6.80
2016,03,28,04,15,6.80
2016,03,28,04,16,6.80
2016,03,28,04,17,6.80
2016,03,28,04,18,6.80
2016,03,28,04,19,6.80
2016,03,28,04,20,6.80
2016,03,28,04,21,6.80
2016,03,28,04,22,6.80
2016,03,28,04,23,6.80
2016,03,28,04,24,6.90
2016,03,28,04,25,6.90
2016,03,28,04,26,6.90
2016,03,28,04,27,6.90
2016,03,28,04,28,6.90
2016,03,28,04,29,6.90
2016,03,28,04,30,6.90
2016,03,28,04,31,6.90
2016,03,28,04,32,6.90
2016,03,28,04,33,6.90
2016,03,28,04,34,6.90
2016,03,28,04,35,6.90
2016,03,28,04,36,6.90
2016,03,28,04,37,6.90
2016,03,28,04,38,6.90
2016,03,28,04,39,6.90
2016,03,28,04,40,6.90
2016,03,28,04,41,6.90
2016,03,28,04,42,6.90
2016,03,28,04,43,6.90
2016,03,28,04,44,6.90
2016,03,28,04,45,6.90
2016,03,28,04,46,6.90
2016,03,28,04,47,6.90
2016,03,28,04,48,6.90
2016,03,28,04,49,6.90
2016,03,28,04,50,6.90
2016,03,28,04,51,6.80
2016,03,28,04,52,6.80
2016,03,28,04,53,6.80
2016,03,28,04,54,6.80
2016,03,28,04,55,6.80
2016,03,28,04,56,6.90
2016,03,28,04,57,6.90
2016,03,28,04,58,6.90
2016,03,28,04,59,7.00
2016,03,28,05,00,7.00
2016,03,28,05,01,6.90
2016,03,28,05,02,6.90
2016,03,28,05,03,6.90
2016,03,28,05,04,6.90
2016,03,28,05,05,6.90
2016,03,28,05,06,6.90
2016,03,28,05,07,6.90
2016,03,28,05,08,6.80
2016,03,28,05,09,6.80
2016,03,28,05,10,6.80
2016,03,28,05,11,6.80
2016,03,28,05,12,6.80
2016,03,28,05,13,6.80
2016,03,28,05,14,6.80
2016,03,28,05,15,6.80
2016,03,28,05,16,6.80
2016,03,28,05,17,6.70
2016,03,28,05,18,6.70
2016,03,28,05,19,6.70
2016,03,28,05,20,6.70
2016,03,28,05,21,6.70
2016,03,28,05,22,6.70
2016,03,28,05,23,6.70
2016,03,28,05,24,6.70
2016,03,28,05,25,6.70
2016,03,28,05,26,6.70
2016,03,28,05,27,6.70
2016,03,28,05,28,6.70
2016,03,28,05,29,6.70
2016,03,28,05,30,6.70
2016,03,28,05,31,6.70
2016,03,28,05,32,6.70
2016,03,28,05,33,6.70
2016,03,28,05,34,6.70
2016,03,28,05,35,6.70
2016,03,28,05,36,6.70
2016,03,28,05,37,6.70
2016,03,28,05,38,6.60
2016,03,28,05,39,6.60
2016,03,28,05,40,6.60
2016,03,28,05,41,6.60
2016,03,28,05,42,6.60
2016,03,28,05,43,6.60
2016,03,28,05,44,6.70
2016,03,28,05,45,6.70
2016,03,28,05,46,6.70
2016,03,28,05,47,6.70
2016,03,28,05,48,6.70
2016,03,28,05,49,6.70
2016,03,28,05,50,6.70
2016,03,28,05,51,6.70
2016,03,28,05,52,6.70
2016,03,28,05,53,6.70
2016,03,28,05,54,6.70
2016,03,28,05,55,6.70
2016,03,28,05,56,6.70
2016,03,28,05,57,6.80
2016,03,28,05,58,6.80
2016,03,28,05,59,6.80
2016,03,28,06,00,6.80
2016,03,28,06,01,6.80
2016,03,28,06,02,6.80
2016,03,28,06,03,6.80
2016,03,28,06,04,6.80
2016,03,28,06,05,6.80
2016,03,28,06,06,6.80
2016,03,28,06,07,6.90
2016,03,28,06,08,6.90
2016,03,28,06,09,6.90
2016,03,28,06,10,6.90
2016,03,28,06,11,6.90
2016,03,28,06,12,6.90
2016,03,28,06,13,7.00
2016,03,28,06,14,7.00
2016,03,28,06,15,7.00
2016,03,28,06,16,7.00
2016,03,28,06,17,7.10
2016,03,28,06,18,7.10
2016,03,28,06,19,7.10
2016,03,28,06,20,7.10
2016,03,28,06,21,7.20
2016,03,28,06,22,7.20
2016,03,28,06,23,7.20
2016,03,28,06,24,7.20
2016,03,28,06,25,7.20
2016,03,28,06,26,7.20
2016,03,28,06,27,7.20
2016,03,28,06,28,7.20
2016,03,28,06,29,7.20
2016,03,28,06,30,7.20
2016,03,28,06,31,7.20
2016,03,28,06,32,7.20
2016,03,28,06,33,7.20
2016,03,28,06,34,7.20
2016,03,28,06,35,7.20
2016,03,28,06,36,7.20
2016,03,28,06,37,7.20
2016,03,28,06,38,7.20
2016,03,28,06,39,7.20
2016,03,28,06,40,7.20
2016,03,28,06,41,7.20
2016,03,28,06,42,7.20
2016,03,28,06,43,7.20
2016,03,28,06,44,7.20
2016,03,28,06,45,7.20
2016,03,28,06,46,7.20
2016,03,28,06,47,7.20
2016,03,28,06,48,7.20
2016,03,28,06,49,7.20
2016,03,28,06,50,7.20
2016,03,28,06,51,7.20
2016,03,28,06,52,7.20
2016,03,28,06,53,7.20
2016,03,28,06,54,7.20
2016,03,28,06,55,7.20
2016,03,28,06,56,7.20
2016,03,28,06,57,7.20
2016,03,28,06,58,7.20
2016,03,28,06,59,7.20
2016,03,28,07,00,7.20
2016,03,28,07,01,7.20
2016,03,28,07,02,7.20
2016,03,28,07,03,7.20
2016,03,28,07,04,7.20
2016,03,28,07,05,7.20
2016,03,28,07,06,7.20
2016,03,28,07,07,7.20
2016,03,28,07,08,7.20
2016,03,28,07,09,7.10
2016,03,28,07,10,7.10
2016,03,28,07,11,7.10
2016,03,28,07,12,7.10
2016,03,28,07,13,7.10
2016,03,28,07,14,7.10
2016,03,28,07,15,7.10
2016,03,28,07,16,7.10
2016,03,28,07,17,7.10
2016,03,28,07,18,7.10
2016,03,28,07,19,7.10
2016,03,28,07,20,7.10
2016,03,28,07,21,7.10
2016,03,28,07,22,7.10
2016,03,28,07,23,7.00
2016,03,28,07,24,7.00
2016,03,28,07,25,7.00
2016,03,28,07,26,7.00
2016,03,28,07,27,7.00
2016,03,28,07,28,7.10
2016,03,28,07,29,7.10
2016,03,28,07,30,7.10
2016,03,28,07,31,7.10
2016,03,28,07,32,7.10
2016,03,28,07,33,7.10
2016,03,28,07,34,7.10
2016,03,28,07,35,7.10
2016,03,28,07,36,7.10
2016,03,28,07,37,7.10
2016,03,28,07,38,7.10
2016,03,28,07,39,7.10
2016,03,28,07,40,7.10
2016,03,28,07,41,7.10
2016,03,28,07,42,7.10
2016,03,28,07,43,7.10
2016,03,28,07,44,7.10
2016,03,28,07,45,7.10
2016,03,28,07,46,7.10
2016,03,28,07,47,7.00
2016,03,28,07,48,7.00
2016,03,28,07,49,7.10
2016,03,28,07,50,7.10
2016,03,28,07,51,7.10
2016,03,28,07,52,7.20
2016,03,28,07,53,7.20
2016,03,28,07,54,7.20
2016,03,28,07,55,7.20
2016,03,28,07,56,7.20
2016,03,28,07,57,7.30
2016,03,28,07,58,7.30
2016,03,28,07,59,7.30
2016,03,28,08,00,7.30
2016,03,28,08,01,7.40
2016,03,28,08,02,7.40
2016,03,28,08,03,7.40
2016,03,28,08,04,7.40
2016,03,28,08,05,7.50
2016,03,28,08,06,7.50
2016,03,28,08,07,7.60
2016,03,28,08,08,7.60
2016,03,28,08,09,7.60
2016,03,28,08,10,7.60
2016,03,28,08,11,7.60
2016,03,28,08,12,7.70
2016,03,28,08,13,7.70
2016,03,28,08,14,7.70
2016,03,28,08,15,7.70
2016,03,28,08,16,7.80
2016,03,28,08,17,7.80
2016,03,28,08,18,7.80
2016,03,28,08,19,7.90
2016,03,28,08,20,7.90
2016,03,28,08,21,7.90
2016,03,28,08,22,7.80
2016,03,28,08,23,7.80
2016,03,28,08,24,7.90
2016,03,28,08,25,7.90
2016,03,28,08,26,7.90
2016,03,28,08,27,7.90
2016,03,28,08,28,7.90
2016,03,28,08,29,7.90
2016,03,28,08,30,7.90
2016,03,28,08,31,7.90
2016,03,28,08,32,7.90
2016,03,28,08,33,7.90
2016,03,28,08,34,8.00
2016,03,28,08,35,8.00
2016,03,28,08,36,8.00
2016,03,28,08,37,8.00
2016,03,28,08,38,8.10
2016,03,28,08,39,8.10
2016,03,28,08,40,8.10
2016,03,28,08,41,8.10
2016,03,28,08,42,8.10
2016,03,28,08,43,8.10
2016,03,28,08,44,8.10
2016,03,28,08,45,8.10
2016,03,28,08,46,8.10
2016,03,28,08,47,8.10
2016,03,28,08,48,8.20
2016,03,28,08,49,8.20
2016,03,28,08,50,8.20
2016,03,28,08,51,8.20
2016,03,28,08,52,8.20
2016,03,28,08,53,8.20
2016,03,28,08,54,8.20
2016,03,28,08,55,8.20
2016,03,28,08,56,8.20
2016,03,28,08,57,8.30
2016,03,28,08,58,8.30
2016,03,28,08,59,8.40
2016,03,28,09,00,8.40
2016,03,28,09,01,8.40
2016,03,28,09,02,8.40
2016,03,28,09,03,8.40
2016,03,28,09,04,8.40
2016,03,28,09,05,8.40
2016,03,28,09,06,8.40
2016,03,28,09,07,8.40
2016,03,28,09,08,8.40
2016,03,28,09,09,8.30
2016,03,28,09,10,8.40
2016,03,28,09,11,8.40
2016,03,28,09,12,8.40
2016,03,28,09,13,8.40
2016,03,28,09,14,8.40
2016,03,28,09,15,8.40
2016,03,28,09,16,8.40
2016,03,28,09,17,8.40
2016,03,28,09,18,8.40
2016,03,28,09,19,8.40
2016,03,28,09,20,8.40
2016,03,28,09,21,8.40
2016,03,28,09,22,8.40
2016,03,28,09,23,8.40
2016,03,28,09,24,8.40
2016,03,28,09,25,8.50
2016,03,28,09,26,8.50
2016,03,28,09,27,8.50
2016,03,28,09,28,8.50
2016,03,28,09,29,8.60
2016,03,28,09,30,8.60
2016,03,28,09,31,8.60
2016,03,28,09,32,8.60
2016,03,28,09,33,8.60
2016,03,28,09,34,8.60
2016,03,28,09,35,8.60
2016,03,28,09,36,8.60
2016,03,28,09,37,8.60
2016,03,28,09,38,8.60
2016,03,28,09,39,8.60
2016,03,28,09,40,8.70
2016,03,28,09,41,8.70
2016,03,28,09,42,8.80
2016,03,28,09,43,8.80
2016,03,28,09,44,8.80
2016,03,28,09,45,8.80
2016,03,28,09,46,8.70
2016,03,28,09,47,8.70
2016,03,28,09,48,8.80
2016,03,28,09,49,8.70
2016,03,28,09,50,8.70
2016,03,28,09,51,8.70
2016,03,28,09,52,8.70
2016,03,28,09,53,8.70
2016,03,28,09,54,8.80
2016,03,28,09,55,8.80
2016,03,28,09,56,8.80
2016,03,28,09,57,8.80
2016,03,28,09,58,8.80
2016,03,28,09,59,8.80
2016,03,28,10,00,8.80
2016,03,28,10,01,8.80
2016,03,28,10,02,8.80
2016,03,28,10,03,8.80
2016,03,28,10,04,8.80
2016,03,28,10,05,8.90
2016,03,28,10,06,8.90
2016,03,28,10,07,8.90
2016,03,28,10,08,9.00
2016,03,28,10,09,9.00
2016,03,28,10,10,9.00
2016,03,28,10,11,9.00
2016,03,28,10,12,9.10
2016,03,28,10,13,9.10
2016,03,28,10,14,9.10
2016,03,28,10,15,9.20
2016,03,28,10,16,9.20
2016,03,28,10,17,9.20
2016,03,28,10,18,9.20
2016,03,28,10,19,9.20
2016,03,28,10,20,9.20
2016,03,28,10,21,9.30
2016,03,28,10,22,9.20
2016,03,28,10,23,9.20
2016,03,28,10,24,9.20
2016,03,28,10,25,9.20
2016,03,28,10,26,9.20
2016,03,28,10,27,9.20
2016,03,28,10,28,9.20
2016,03,28,10,29,9.20
2016,03,28,10,30,9.20
2016,03,28,10,31,9.20
2016,03,28,10,32,9.30
2016,03,28,10,33,9.30
2016,03,28,10,34,9.30
2016,03,28,10,35,9.30
2016,03,28,10,36,9.30
2016,03,28,10,37,9.30
2016,03,28,10,38,9.30
2016,03,28,10,39,9.30
2016,03,28,10,40,9.30
2016,03,28,10,41,9.30
2016,03,28,10,42,9.30
2016,03,28,10,43,9.30
2016,03,28,10,44,9.30
2016,03,28,10,45,9.30
2016,03,28,10,46,9.30
2016,03,28,10,47,9.40
2016,03,28,10,48,9.40
2016,03,28,10,49,9.40
2016,03,28,10,50,9.40
2016,03,28,10,51,9.40
2016,03,28,10,52,9.40
2016,03,28,10,53,9.50
2016,03,28,10,54,9.50
2016,03,28,10,55,9.60
2016,03,28,10,56,9.50
2016,03,28,10,57,9.50
2016,03,28,10,58,9.50
2016,03,28,10,59,9.40
2016,03,28,11,00,9.40
2016,03,28,11,01,9.40
2016,03,28,11,02,9.50
2016,03,28,11,03,9.50
2016,03,28,11,04,9.50
2016,03,28,11,05,9.60
2016,03,28,11,06,9.60
2016,03,28,11,07,9.70
2016,03,28,11,08,9.70
2016,03,28,11,09,9.70
2016,03,28,11,10,9.70
2016,03,28,11,11,9.70
2016,03,28,11,12,9.70
2016,03,28,11,13,9.80
2016,03,28,11,14,9.80
2016,03,28,11,15,9.80
2016,03,28,11,16,9.90
2016,03,28,11,17,9.80
2016,03,28,11,18,9.90
2016,03,28,11,19,9.90
2016,03,28,11,20,9.80
2016,03,28,11,21,9.80
2016,03,28,11,22,9.80
2016,03,28,11,23,9.80
2016,03,28,11,24,9.80
2016,03,28,11,25,9.90
2016,03,28,11,26,9.90
2016,03,28,11,27,9.90
2016,03,28,11,28,9.90
2016,03,28,11,29,9.90
2016,03,28,11,30,9.90
2016,03,28,11,31,9.90
2016,03,28,11,32,9.80
2016,03,28,11,33,9.80
2016,03,28,11,34,9.80
2016,03,28,11,35,9.80
2016,03,28,11,36,9.90
2016,03,28,11,37,9.90
2016,03,28,11,38,10.00
2016,03,28,11,39,10.10
2016,03,28,11,40,10.20
2016,03,28,11,41,10.20
2016,03,28,11,42,10.20
2016,03,28,11,43,10.20
2016,03,28,11,44,10.30
2016,03,28,11,45,10.30
2016,03,28,11,46,10.20
2016,03,28,11,47,10.20
2016,03,28,11,48,10.20
2016,03,28,11,49,10.20
2016,03,28,11,50,10.20
2016,03,28,11,51,10.30
2016,03,28,11,52,10.30
2016,03,28,11,53,10.30
2016,03,28,11,54,10.30
2016,03,28,11,55,10.40
2016,03,28,11,56,10.40
2016,03,28,11,57,10.40
2016,03,28,11,58,10.50
2016,03,28,11,59,10.60
2016,03,28,12,00,10.70
2016,03,28,12,01,10.70
2016,03,28,12,02,10.70
2016,03,28,12,03,10.70
2016,03,28,12,04,10.70
2016,03,28,12,05,10.70
2016,03,28,12,06,10.70
2016,03,28,12,07,10.70
2016,03,28,12,08,10.70
2016,03,28,12,09,10.70
2016,03,28,12,10,10.70
2016,03,28,12,11,10.70
2016,03,28,12,12,10.70
2016,03,28,12,13,10.70
2016,03,28,12,14,10.70
2016,03,28,12,15,10.70
2016,03,28,12,16,10.70
2016,03,28,12,17,10.70
2016,03,28,12,18,10.70
2016,03,28,12,19,10.70
2016,03,28,12,20,10.70
2016,03,28,12,21,10.70
2016,03,28,12,22,10.70
2016,03,28,12,23,10.70
2016,03,28,12,24,10.80
2016,03,28,12,25,10.80
2016,03,28,12,26,10.80
2016,03,28,12,27,10.90
2016,03,28,12,28,10.90
2016,03,28,12,29,10.90
2016,03,28,12,30,10.90
2016,03,28,12,31,11.00
2016,03,28,12,32,11.10
2016,03,28,12,33,11.20
2016,03,28,12,34,11.20
2016,03,28,12,35,11.40
2016,03,28,12,36,11.40
2016,03,28,12,37,11.50
2016,03,28,12,38,11.40
2016,03,28,12,39,11.40
2016,03,28,12,40,11.40
2016,03,28,12,41,11.40
2016,03,28,12,42,11.40
2016,03,28,12,43,11.40
2016,03,28,12,44,11.50
2016,03,28,12,45,11.60
2016,03,28,12,46,11.60
2016,03,28,12,47,11.60
2016,03,28,12,48,11.60
2016,03,28,12,49,11.60
2016,03,28,12,50,11.60
2016,03,28,12,51,11.60
2016,03,28,12,52,11.60
2016,03,28,12,53,11.60
2016,03,28,12,54,11.60
2016,03,28,12,55,11.60
2016,03,28,12,56,11.60
2016,03,28,12,57,11.60
2016,03,28,12,58,11.60
2016,03,28,12,59,11.60
2016,03,28,13,00,11.60
2016,03,28,13,01,11.60
2016,03,28,13,02,11.50
2016,03,28,13,03,11.50
2016,03,28,13,04,11.50
2016,03,28,13,05,11.60
2016,03,28,13,06,11.60
2016,03,28,13,07,11.60
2016,03,28,13,08,11.70
2016,03,28,13,09,11.70
2016,03,28,13,10,11.70
2016,03,28,13,11,11.80
2016,03,28,13,12,11.80
2016,03,28,13,13,11.80
2016,03,28,13,14,11.80
2016,03,28,13,15,11.90
2016,03,28,13,16,11.90
2016,03,28,13,17,12.00
2016,03,28,13,18,12.00
2016,03,28,13,19,12.00
2016,03,28,13,20,12.00
2016,03,28,13,21,12.00
2016,03,28,13,22,12.00
2016,03,28,13,23,12.00
2016,03,28,13,24,12.00
2016,03,28,13,25,12.00
2016,03,28,13,26,12.00
2016,03,28,13,27,11.90
2016,03,28,13,28,12.00
2016,03,28,13,29,12.00
2016,03,28,13,30,12.00
2016,03,28,13,31,11.90
2016,03,28,13,32,11.90
2016,03,28,13,33,11.90
2016,03,28,13,34,11.90
2016,03,28,13,35,11.90
2016,03,28,13,36,11.90
2016,03,28,13,37,11.80
2016,03,28,13,38,11.80
2016,03,28,13,39,11.80
2016,03,28,13,40,11.90
2016,03,28,13,41,11.90
2016,03,28,13,42,11.90
2016,03,28,13,43,11.90
2016,03,28,13,44,11.90
2016,03,28,13,45,11.90
2016,03,28,13,46,11.90
2016,03,28,13,47,12.00
2016,03,28,13,48,11.90
2016,03,28,13,49,11.90
2016,03,28,13,50,11.90
2016,03,28,13,51,11.90
2016,03,28,13,52,11.90
2016,03,28,13,53,11.90
2016,03,28,13,54,11.90
2016,03,28,13,55,11.90
2016,03,28,13,56,12.00
2016,03,28,13,57,12.00
2016,03,28,13,58,12.00
2016,03,28,13,59,12.00
2016,03,28,14,00,12.00
2016,03,28,14,01,11.90
2016,03,28,14,02,12.00
2016,03,28,14,03,12.00
2016,03,28,14,04,12.10
2016,03,28,14,05,12.20
2016,03,28,14,06,12.20
2016,03,28,14,07,12.20
2016,03,28,14,08,12.20
2016,03,28,14,09,12.20
2016,03,28,14,10,12.20
2016,03,28,14,11,12.30
2016,03,28,14,12,12.40
2016,03,28,14,13,12.30
2016,03,28,14,14,12.30
2016,03,28,14,15,12.30
2016,03,28,14,16,12.30
2016,03,28,14,17,12.40
2016,03,28,14,18,12.40
2016,03,28,14,19,12.30
2016,03,28,14,20,12.30
2016,03,28,14,21,12.30
2016,03,28,14,22,12.30
2016,03,28,14,23,12.30
2016,03,28,14,24,12.40
2016,03,28,14,25,12.40
2016,03,28,14,26,12.40
2016,03,28,14,27,12.40
2016,03,28,14,28,12.30
2016,03,28,14,29,12.30
2016,03,28,14,30,12.30
2016,03,28,14,31,12.30
2016,03,28,14,32,12.20
2016,03,28,14,33,12.20
2016,03,28,14,34,12.20
2016,03,28,14,35,12.10
2016,03,28,14,36,12.10
2016,03,28,14,37,12.20
2016,03,28,14,38,12.20
2016,03,28,14,39,12.20
2016,03,28,14,40,12.20
2016,03,28,14,41,12.20
2016,03,28,14,42,12.20
2016,03,28,14,43,12.20
2016,03,28,14,44,12.30
2016,03,28,14,45,12.30
2016,03,28,14,46,12.40
2016,03,28,14,47,12.40
2016,03,28,14,48,12.40
2016,03,28,14,49,12.30
2016,03,28,14,50,12.30
2016,03,28,14,51,12.30
2016,03,28,14,52,12.30
2016,03,28,14,53,12.30
2016,03,28,14,54,12.30
2016,03,28,14,55,12.20
2016,03,28,14,56,12.30
2016,03,28,14,57,12.30
2016,03,28,14,58,12.30
2016,03,28,14,59,12.30
2016,03,28,15,00,12.30
2016,03,28,15,01,12.40
2016,03,28,15,02,12.40
2016,03,28,15,03,12.40
2016,03,28,15,04,12.40
2016,03,28,15,05,12.40
2016,03,28,15,06,12.40
2016,03,28,15,07,12.50
2016,03,28,15,08,12.60
2016,03,28,15,09,12.60
2016,03,28,15,10,12.60
2016,03,28,15,11,12.60
2016,03,28,15,12,12.60
2016,03,28,15,13,12.60
2016,03,28,15,14,12.60
2016,03,28,15,15,12.60
2016,03,28,15,16,12.60
2016,03,28,15,17,12.60
2016,03,28,15,18,12.60
2016,03,28,15,19,12.70
2016,03,28,15,20,12.70
2016,03,28,15,21,12.70
2016,03,28,15,22,12.70
2016,03,28,15,23,12.70
2016,03,28,15,24,12.80
2016,03,28,15,25,12.80
2016,03,28,15,26,12.80
2016,03,28,15,27,12.80
2016,03,28,15,28,12.80
2016,03,28,15,29,12.80
2016,03,28,15,30,12.80
2016,03,28,15,31,12.80
2016,03,28,15,32,12.80
2016,03,28,15,33,12.80
2016,03,28,15,34,12.80
2016,03,28,15,35,12.70
2016,03,28,15,36,12.70
2016,03,28,15,37,12.60
2016,03,28,15,38,12.60
2016,03,28,15,39,12.60
2016,03,28,15,40,12.60
2016,03,28,15,41,12.60
2016,03,28,15,42,12.60
2016,03,28,15,43,12.70
2016,03,28,15,44,12.70
2016,03,28,15,45,12.80
2016,03,28,15,46,12.80
2016,03,28,15,47,12.80
2016,03,28,15,48,12.80
2016,03,28,15,49,12.90
2016,03,28,15,50,12.90
2016,03,28,15,51,12.90
2016,03,28,15,52,13.00
2016,03,28,15,53,13.00
2016,03,28,15,54,13.00
2016,03,28,15,55,13.00
2016,03,28,15,56,13.00
2016,03,28,15,57,13.10
2016,03,28,15,58,13.10
2016,03,28,15,59,13.10
2016,03,28,16,00,13.10
2016,03,28,16,01,13.10
2016,03,28,16,02,13.10
2016,03,28,16,03,13.10
2016,03,28,16,04,13.20
2016,03,28,16,05,13.20
2016,03,28,16,06,13.30
2016,03,28,16,07,13.30
2016,03,28,16,08,13.30
2016,03,28,16,09,13.30
2016,03,28,16,10,13.30
2016,03,28,16,11,13.40
2016,03,28,16,12,13.40
2016,03,28,16,13,13.40
2016,03,28,16,14,13.40
2016,03,28,16,15,13.40
2016,03,28,16,16,13.50
2016,03,28,16,17,13.50
2016,03,28,16,18,13.60
2016,03,28,16,19,13.60
2016,03,28,16,20,13.60
2016,03,28,16,21,13.70
2016,03,28,16,22,13.70
2016,03,28,16,23,13.60
2016,03,28,16,24,13.60
2016,03,28,16,25,13.60
2016,03,28,16,26,13.60
2016,03,28,16,27,13.60
2016,03,28,16,28,13.60
2016,03,28,16,29,13.60
2016,03,28,16,30,13.60
2016,03,28,16,31,13.60
2016,03,28,16,32,13.60
2016,03,28,16,33,13.50
2016,03,28,16,34,13.50
2016,03,28,16,35,13.50
2016,03,28,16,36,13.50
2016,03,28,16,37,13.50
2016,03,28,16,38,13.50
2016,03,28,16,39,13.50
2016,03,28,16,40,13.60
2016,03,28,16,41,13.60
2016,03,28,16,42,13.70
2016,03,28,16,43,13.70
2016,03,28,16,44,13.80
2016,03,28,16,45,13.80
2016,03,28,16,46,13.80
2016,03,28,16,47,13.80
2016,03,28,16,48,13.80
2016,03,28,16,49,13.80
2016,03,28,16,50,13.80
2016,03,28,16,51,13.80
2016,03,28,16,52,13.80
2016,03,28,16,53,13.80
2016,03,28,16,54,13.80
2016,03,28,16,55,13.80
2016,03,28,16,56,13.80
2016,03,28,16,57,13.80
2016,03,28,16,58,13.80
2016,03,28,16,59,13.80
2016,03,28,17,00,13.70
2016,03,28,17,01,13.70
2016,03,28,17,02,13.70
2016,03,28,17,03,13.70
2016,03,28,17,04,13.70
2016,03,28,17,05,13.70
2016,03,28,17,06,13.70
2016,03,28,17,07,13.70
2016,03,28,17,08,13.70
2016,03,28,17,09,13.80
2016,03,28,17,10,13.80
2016,03,28,17,11,13.80
2016,03,28,17,12,13.80
2016,03,28,17,13,13.80
2016,03,28,17,14,13.70
2016,03,28,17,15,13.70
2016,03,28,17,16,13.70
2016,03,28,17,17,13.70
2016,03,28,17,18,13.60
2016,03,28,17,19,13.60
2016,03,28,17,20,13.60
2016,03,28,17,21,13.60
2016,03,28,17,22,13.60
2016,03,28,17,23,13.60
2016,03,28,17,24,13.60
2016,03,28,17,25,13.70
2016,03,28,17,26,13.70
2016,03,28,17,27,13.70
2016,03,28,17,28,13.70
2016,03,28,17,29,13.70
2016,03,28,17,30,13.70
2016,03,28,17,31,13.70
2016,03,28,17,32,13.70
2016,03,28,17,33,13.70
2016,03,28,17,34,13.70
2016,03,28,17,35,13.70
2016,03,28,17,36,13.70
2016,03,28,17,37,13.60
2016,03,28,17,38,13.60
2016,03,28,17,39,13.60
2016,03,28,17,40,13.60
2016,03,28,17,41,13.60
2016,03,28,17,42,13.60
2016,03,28,17,43,13.60
2016,03,28,17,44,13.60
2016,03,28,17,45,13.60
2016,03,28,17,46,13.60
2016,03,28,17,47,13.60
2016,03,28,17,48,13.70
2016,03,28,17,49,13.70